{"data":{"norad_id":66408,"epoch":"2026-05-25T05:14:19.546656Z","epoch_age_seconds":63158,"freshness":"FRESH","line1":"1 66408U 25257AE  26145.21828179  .00028668  00000+0  85610-3 0  9993","line2":"2 66408  53.1586 220.6024 0001154  84.9021 275.2113 15.34409614 31467","mean_motion":15.34409614,"eccentricity":0.0001154,"inclination_deg":53.1586,"raan_deg":220.6024,"arg_perigee_deg":84.9021,"mean_anomaly_deg":275.2113,"bstar":0.0008561,"rev_number":3146,"period_min":93.847170068631,"perigee_km":461.88523585604,"apogee_km":463.46409518845,"semimajor_km":6840.8116655222,"source":"CELESTRAK","updated_at":"2026-05-25T13:38:21.206310Z"}}